Location: Brookview Estates
(36.0476°N, 86.6931°W)
Time: 01:37:34
(UTC+00:00)

SL-16 R/B - Pass Details

Date: 30 March 2020
Orbit: 840 x 849 km, 71.0° (Epoch: 03 June)

Event Time Altitude Azimuth Distance (km) Brightness Sun altitude
Rises 01:29:36 0° 210° (SSW) 3,383 5.5 -17.2°
Reaches altitude 10° 01:32:04 10° 214° (SW) 2,451 4.8 -17.7°
Maximum altitude 01:37:37 59° 294° (WNW) 968 2.8 -18.7°
Drops below altitude 10° 01:43:11 10° 14° (NNE) 2,462 4.7 -19.8°
Sets 01:45:41 0° 18° (NNE) 3,400 5.4 -20.3°
